{"data":{"norad_id":40074,"intl_designator":"2014-037F","name":"UKUBE-1","alt_names":[],"object_type":"PAYLOAD","status":"ACTIVE","operator":null,"country":"UK","launch_date":"2014-07-08","launch_site_code":"TYMSC","launch_vehicle":null,"mission":null,"orbit_class":"UNKNOWN","rcs_meters":0.118,"size_class":null,"mass_kg":null,"dimensions":null,"purposes":["tech_demo"],"wikipedia_slug":null,"has_3d_model":false,"image_url":null,"decayed_at":null,"tle_current":{"epoch":"2026-09-19T19:09:12.869568Z","epoch_age_seconds":75113,"freshness":"FRESH","line1":"1 40074U 14037F   26262.79806562  .00005089  00000+0  27849-3 0  9995","line2":"2 40074  98.4270 276.1250 0001599 148.3450 211.7875 15.14785129662872","mean_motion":15.14785129,"eccentricity":0.0001599,"inclination_deg":98.427,"raan_deg":276.125,"arg_perigee_deg":148.345,"mean_anomaly_deg":211.7875,"bstar":0.00027849,"rev_number":66287,"period_min":95.062987643048,"perigee_km":520.52769421905,"apogee_km":522.73424001494,"semimajor_km":6899.767967117,"source":"CELESTRAK","updated_at":"2026-09-20T09:00:48.027641Z"}}}